Wind_Speed
39 38 38 38 36 36 37 37 38 38 36 35 34 34 33 33 34 34 33 34 35 36 35 34 36 36 36 39 40 41 41 37 39 47 49 47 51 52 51 46 43 40 39 43 44 47 44 40 38 37 35 37 36 36
36 35 33 34 36 37 36 36 35 35 33 31 30 30 32 32 31 29 29 32 34 35 32 32 32 32 30 32 36 38 39 40 41 39 40 44 49 47 43 42 43 49 48 42 45 43 39 36 42 39 33 29 29 31
30 32 34 36 37 37 36 34 32 31 29 30 28 27 29 30 28 23 25 27 30 30 30 29 29 34 34 32 31 34 37 38 38 38 39 40 43 45 44 42 43 43 44 48 48 36 39 43 38 33 32 31 32 32
31 33 36 36 37 37 35 32 29 27 27 27 27 28 28 26 23 20 18 22 24 26 27 21 25 29 33 35 35 34 33 36 37 40 40 41 41 41 39 38 36 35 37 40 43 42 41 37 35 37 33 33 32 33
32 34 36 36 31 29 28 27 24 24 25 26 28 28 26 24 21 20 22 24 23 22 19 18 20 19 27 31 33 33 32 32 35 40 41 37 36 37 36 35 33 32 33 36 39 38 35 37 37 34 34 39 34 34
33 35 33 30 28 27 26 25 22 24 25 25 27 28 25 20 17 15 17 20 18 17 13 8 9 19 22 22 26 30 29 32 32 31 34 34 33 33 34 33 30 32 34 35 35 33 40 37 35 34 37 39 32 33
33 31 29 27 27 27 24 19 20 24 24 26 27 22 21 19 16 15 14 13 16 14 12 12 14 17 13 17 16 21 25 27 29 30 30 28 30 33 34 32 26 34 33 33 33 33 33 32 25 27 27 36 40 38
31 29 26 27 29 25 18 20 22 22 23 25 21 19 18 14 12 11 11 10 12 15 16 17 18 20 21 20 16 16 20 23 25 26 26 26 28 30 27 22 27 22 23 29 32 34 32 30 29 29 30 26 28 31
29 26 26 30 28 19 19 20 22 20 21 21 17 14 14 13 13 13 10 8 8 6 9 10 13 16 20 19 23 20 22 27 22 25 24 22 27 28 16 21 20 18 16 24 28 29 32 31 31 27 22 21 25 30
29 27 28 28 22 19 18 20 19 20 21 16 13 11 12 11 13 14 14 6 8 11 12 16 11 7 11 14 15 12 11 12 23 23 20 24 29 23 16 14 16 18 21 23 26 27 28 29 24 24 30 29 30 27
29 29 28 27 19 18 18 17 18 20 18 15 12 11 12 11 11 11 10 7 5 6 13 10 12 15 12 4 5 8 13 16 18 18 23 25 20 17 16 13 15 19 19 30 31 30 27 28 33 26 21 23 23 23
31 31 28 22 18 18 16 17 19 18 15 13 12 12 11 11 11 10 9 9 4 5 4 1 3 7 2 4 6 5 7 9 11 10 16 18 17 15 16 5 13 21 22 26 32 31 31 30 28 27 22 23 24 26
31 25 18 16 16 15 15 16 13 11 11 11 11 12 13 14 15 12 11 12 12 8 9 5 3 4 5 10 13 11 9 9 4 7 8 12 14 16 14 7 3 18 28 32 37 38 34 34 33 35 30 27 29 28
20 14 14 16 15 12 12 10 12 12 13 15 16 16 15 15 15 15 13 13 14 12 11 11 5 5 5 4 5 7 7 7 11 13 14 14 14 13 14 11 9 12 23 34 37 36 35 33 32 32 32 32 31 31
19 15 18 16 8 6 9 10 13 15 16 15 15 15 15 16 17 17 16 14 14 14 14 15 11 11 9 9 9 7 8 13 13 13 14 13 16 17 16 16 16 21 22 21 23 28 34 32 32 32 32 31 31 31
15 17 13 3 4 7 10 13 12 12 12 12 12 13 14 15 17 17 16 15 14 14 14 14 14 12 11 12 11 7 8 8 10 11 11 12 15 17 21 21 20 22 23 22 22 22 23 25 30 32 31 31 31 30
5 3 2 4 7 9 10 11 11 11 12 12 12 12 12 14 17 17 16 15 13 13 14 13 13 15 15 14 12 10 11 9 16 12 11 9 9 11 14 15 16 18 19 18 17 15 18 23 29 32 33 34 33 32
3 4 4 5 6 9 11 10 9 10 11 13 13 14 17 17 16 15 12 13 12 11 12 13 13 13 13 14 15 16 15 13 15 14 10 13 13 13 15 16 18 20 19 18 17 17 17 21 27 29 31 32 32 32
4 4 6 7 8 9 9 7 9 10 10 13 14 17 19 18 18 16 13 11 9 9 9 11 13 13 13 14 14 13 14 18 19 19 19 17 17 16 16 16 17 18 20 21 20 23 22 22 24 27 29 30 32 32
6 6 6 7 8 7 7 8 10 9 12 13 14 16 22 20 20 16 10 7 6 5 5 6 7 9 11 13 14 15 15 15 17 20 23 21 20 20 22 22 22 24 23 23 22 24 23 22 25 27 31 34 34 33
4 5 6 7 7 7 6 8 9 10 12 18 17 16 19 19 18 15 11 8 6 5 4 4 4 5 7 10 12 14 15 17 19 20 22 25 25 22 22 20 22 18 19 21 20 23 21 20 18 21 31 44 40 37
5 6 7 6 4 4 7 10 9 11 13 15 17 17 18 18 17 15 12 9 7 5 4 3 2 3 3 4 4 6 10 15 20 22 23 25 25 20 23 26 31 30 30 23 20 21 21 21 20 21 22 24 24 25
5 6 7 4 3 4 5 8 9 11 13 14 15 17 17 17 17 16 14 11 10 8 6 4 4 3 4 5 5 6 8 8 3 8 17 23 25 30 20 17 16 19 19 18 19 21 22 24 25 28 30 32 34 34
4 3 7 9 8 3 5 6 8 10 12 14 15 14 14 15 17 17 16 14 11 9 8 7 7 7 7 6 6 5 6 5 2 6 10 12 14 17 21 23 23 21 22 25 25 24 24 25 26 28 28 29 30 33
5 2 5 10 9 8 11 8 9 10 12 13 13 12 12 14 15 16 15 14 13 12 11 10 9 9 7 7 6 6 5 4 2 3 5 8 10 12 14 16 17 18 19 19 20 20 20 21 22 24 24 23 23 25
1 3 4 8 10 8 7 8 9 10 12 12 12 11 11 11 12 14 17 17 16 14 13 12 11 9 9 8 7 7 5 3 2 2 3 4 6 8 9 11 13 15 17 18 19 20 22 24 25 26 26 26 26 26
4 4 4 6 7 8 8 8 9 11 12 12 10 10 10 9 8 10 13 15 16 15 14 15 17 14 11 9 9 9 9 8 7 5 3 3 4 6 7 9 10 13 16 18 20 20 20 20 20 21 22 21 21 21
2 2 3 5 7 9 10 10 10 11 12 10 9 8 8 8 8 9 10 12 13 13 12 11 14 17 16 11 10 11 11 12 11 10 8 6 4 5 5 5 7 11 18 18 13 12 12 13 14 15 16 18 17 17
3 4 3 3 5 6 7 8 10 10 9 9 10 10 9 8 8 8 9 10 12 12 12 8 8 11 13 15 13 12 14 15 16 16 15 11 8 5 3 3 5 7 11 10 10 12 15 14 15 17 16 19 22 21
5 4 3 2 3 5 7 7 8 8 10 13 14 15 14 12 10 10 10 11 11 12 12 11 9 10 9 10 12 11 11 14 15 15 15 12 9 8 7 7 7 7 8 10 11 9 6 3 4 5 8 12 16 18
2 1 1 1 3 4 6 9 10 10 15 17 18 18 17 16 14 11 11 11 11 11 11 11 10 10 11 10 9 11 12 11 14 15 16 15 12 11 11 11 8 8 8 8 8 8 8 7 5 3 4 4 3 8
0 1 2 2 3 5 7 10 10 12 14 14 16 17 17 16 15 14 13 12 12 10 10 11 10 9 10 12 12 11 13 13 12 14 17 18 18 20 20 17 15 12 10 11 11 11 10 8 8 8 10 11 11 9
2 3 4 5 6 7 8 9 13 13 12 13 15 16 18 17 17 16 15 13 12 10 10 10 10 9 11 13 13 13 11 12 13 14 14 15 18 20 21 22 24 24 22 20 19 18 16 13 13 12 11 10 11 14
Wind_Direction
303 302 302 303 304 305 305 303 301 300 300 299 298 297 296 296 293 288 281 278 276 274 269 263 264 262 258 255 254 253 251 253 245 243 242 242 244 243 246 245 244 246 245 242 246 241 245 248 251 254 257 260 259 252
302 304 307 307 306 304 303 304 303 303 304 304 303 302 301 300 298 293 283 275 274 274 273 267 263 263 261 256 251 248 248 246 246 246 244 240 241 243 241 244 244 243 244 243 239 252 248 255 247 253 257 252 258 254
308 310 310 309 307 303 302 303 301 304 305 305 302 302 304 302 296 298 287 280 276 276 275 274 264 255 256 252 249 248 247 246 244 245 244 242 243 243 243 240 245 245 245 244 250 243 247 249 253 254 249 257 240 227
310 311 312 311 309 304 299 299 301 305 308 308 311 312 309 307 294 289 286 292 292 284 273 265 259 252 248 248 248 247 246 244 242 244 246 245 243 242 238 240 242 241 240 240 243 245 245 249 251 248 248 241 236 229
311 312 314 314 315 315 309 306 303 313 315 314 315 316 315 309 294 283 282 286 293 286 273 255 266 260 251 247 246 246 244 244 245 242 242 245 246 232 232 237 238 242 242 244 245 241 238 238 243 236 227 232 234 228
311 313 314 314 318 315 312 310 306 315 317 320 321 317 314 314 302 291 290 281 280 275 272 250 263 296 275 260 251 245 243 240 241 246 245 243 243 243 235 235 242 244 242 243 238 235 233 239 230 218 223 231 232 229
312 312 312 315 316 315 309 308 311 318 320 324 327 330 329 320 313 295 294 285 261 270 266 264 269 258 281 259 252 243 241 240 240 241 240 239 239 239 240 241 240 240 237 233 228 222 230 222 219 224 216 225 226 214
313 311 307 310 314 311 298 307 313 318 322 326 329 342 343 350 348 343 340 329 272 269 272 274 266 258 259 258 257 247 238 239 238 238 239 238 236 235 232 233 238 235 220 215 218 213 210 213 207 209 203 198 198 209
311 308 307 308 310 302 302 304 311 313 319 322 323 340 348 356 6 8 356 15 27 6 354 325 287 267 263 253 243 261 252 240 250 239 239 241 231 215 234 226 208 201 207 197 197 200 200 194 191 196 194 203 212 215
308 304 309 310 299 296 300 305 303 309 316 315 313 322 336 336 336 339 356 332 2 9 2 350 333 312 287 262 256 245 242 222 235 247 240 231 232 249 207 194 200 201 209 204 196 192 191 192 189 190 196 206 221 224
306 302 304 306 289 291 301 300 302 308 309 309 306 306 319 331 333 334 332 335 328 21 15 17 53 58 44 53 201 227 224 229 232 231 230 235 226 212 210 234 216 198 199 211 188 180 191 195 199 203 211 221 223 220
305 300 299 293 282 289 294 300 305 307 305 302 296 287 299 310 328 335 323 335 319 277 60 150 323 140 341 260 284 304 263 233 231 229 212 202 197 200 208 197 223 217 200 195 194 192 192 199 204 210 217 221 214 212
306 298 289 282 283 283 295 306 309 316 316 313 306 296 296 302 308 313 308 296 293 273 251 255 256 228 259 264 264 266 263 251 237 203 192 189 174 192 178 186 210 210 191 189 191 194 200 207 216 219 225 224 216 218
318 299 284 281 280 292 308 308 315 317 317 314 311 308 306 306 305 306 303 292 283 280 269 245 269 262 268 270 251 211 239 233 217 225 226 224 216 212 218 224 242 222 199 197 203 204 208 213 223 222 218 222 219 222
308 300 296 277 285 318 312 317 321 321 318 314 310 311 309 306 304 301 296 288 285 276 264 271 274 255 258 270 270 265 248 235 231 235 234 224 217 218 225 239 240 225 215 216 217 219 220 222 216 224 231 223 220 223
307 307 287 348 320 312 328 329 323 325 319 322 327 326 320 321 315 308 301 290 277 265 267 260 257 264 256 250 247 250 236 232 231 226 232 234 226 222 227 228 225 219 219 220 221 221 220 220 226 233 234 227 227 230
325 330 360 333 332 333 332 329 327 334 339 340 337 340 335 334 324 311 300 293 282 263 248 248 250 250 248 251 245 244 244 248 211 216 223 227 234 220 212 217 222 223 225 228 227 228 232 224 221 225 229 231 232 234
3 341 336 332 333 334 336 339 344 348 356 356 351 348 347 341 334 318 305 306 286 270 252 243 243 244 245 249 250 246 241 235 227 222 222 232 231 230 227 224 223 224 228 235 234 227 226 228 225 223 224 228 232 237
350 341 331 333 339 341 336 335 342 345 348 359 6 3 349 344 344 339 324 309 293 271 256 248 247 246 247 248 250 248 242 236 230 230 231 230 227 228 228 228 231 233 236 239 241 241 238 228 232 236 237 238 239 242
338 336 332 342 346 341 334 344 354 8 8 12 1 357 357 352 347 350 348 342 326 298 273 264 256 253 251 251 254 256 251 243 236 233 229 228 225 223 225 223 210 239 240 239 238 241 249 246 242 241 244 244 245 248
339 337 337 345 356 355 1 9 22 24 19 7 2 355 353 360 359 2 1 358 1 8 342 293 276 272 268 260 250 253 259 257 249 239 230 228 225 224 217 228 234 226 227 228 235 235 239 239 239 251 260 252 246 242
356 355 352 357 16 35 30 31 29 19 11 11 15 10 5 5 10 10 15 16 15 19 13 357 281 297 325 321 288 276 273 272 266 251 235 223 217 217 234 235 232 239 251 255 253 249 251 260 260 253 244 241 239 238
13 9 354 360 38 57 32 22 22 13 6 5 6 6 6 11 14 17 19 21 25 28 26 15 1 349 344 342 349 1 358 344 292 212 211 213 208 206 216 225 221 240 247 247 247 248 252 252 252 246 239 237 241 242
19 52 47 29 20 24 30 30 27 13 7 5 7 10 10 13 15 15 19 22 26 28 30 29 26 21 8 3 21 25 19 30 78 150 180 192 210 225 238 251 258 261 256 256 260 259 255 253 253 253 250 248 250 250
17 90 39 36 40 65 41 38 26 10 3 5 5 8 12 19 21 21 26 29 31 33 28 22 28 29 25 27 28 29 34 51 92 155 177 190 205 221 231 241 248 254 257 257 257 256 256 251 246 246 244 247 247 246
358 121 51 29 32 40 29 24 16 12 12 9 3 4 9 18 21 26 33 36 37 37 36 37 37 33 37 40 36 31 22 8 353 309 274 266 258 260 261 265 267 269 268 268 266 264 260 255 252 250 251 250 251 255
67 87 74 21 13 20 24 15 11 13 10 5 1 5 12 13 13 23 27 32 34 35 33 39 40 39 43 47 49 46 39 37 34 26 1 314 286 274 270 269 270 275 278 276 273 270 266 261 256 249 246 245 247 246
42 49 23 30 23 15 7 2 2 7 8 6 10 10 9 13 18 22 22 24 27 31 34 41 43 44 43 42 44 45 49 48 44 35 24 13 351 329 320 315 320 319 311 303 278 278 266 253 247 245 248 240 238 247
99 85 73 34 12 10 6 8 9 6 8 12 9 9 10 10 6 5 8 10 15 20 26 27 36 43 40 38 36 36 36 37 34 27 17 10 5 2 357 332 324 341 352 343 295 277 270 265 266 256 250 248 243 243
77 75 81 53 30 29 27 25 28 27 31 33 26 15 8 7 6 1 358 358 3 11 17 20 24 33 37 34 38 38 41 41 38 32 28 27 33 32 24 16 16 12 17 23 24 24 21 296 264 256 262 262 257 253
83 103 112 51 26 20 28 37 32 34 42 36 29 22 18 16 13 9 6 4 6 13 18 19 21 31 33 40 46 42 46 50 45 39 36 35 38 36 37 37 36 26 23 33 48 60 66 56 39 355 321 322 306 235
243 243 275 318 356 13 17 22 11 25 32 29 31 28 27 26 23 20 17 17 20 18 21 23 27 34 34 39 42 47 48 51 51 49 45 46 46 46 45 42 43 41 35 37 39 41 41 50 58 56 56 58 69 98
349 324 323 333 344 354 1 13 23 22 24 24 25 19 22 22 24 25 23 19 22 22 24 26 28 32 39 42 42 46 51 52 55 56 52 50 50 50 52 53 54 52 53 57 58 57 55 55 59 63 66 77 91 98
Height
5739 5735 5731 5727 5723 5719 5714 5709 5705 5700 5696 5692 5688 5684 5681 5677 5674 5672 5670 5668 5668 5668 5668 5670 5672 5674 5676 5678 5681 5684 5688 5690 5693 5696 5700 5705 5709 5716 5719 5727 5733 5738 5741 5745 5749 5751 5756 5762 5765 5768 5774 5776 5779 5783
5730 5726 5722 5718 5713 5709 5705 5700 5695 5690 5686 5683 5679 5675 5671 5667 5664 5662 5660 5656 5656 5655 5658 5660 5662 5664 5665 5667 5669 5671 5675 5678 5681 5685 5688 5693 5698 5702 5708 5712 5719 5722 5729 5732 5737 5741 5745 5749 5754 5756 5762 5764 5768 5772
5721 5717 5714 5709 5704 5700 5695 5691 5686 5682 5679 5674 5670 5667 5662 5658 5654 5653 5649 5647 5646 5646 5647 5649 5651 5651 5653 5656 5657 5659 5664 5666 5670 5673 5677 5682 5686 5691 5695 5702 5707 5712 5716 5719 5723 5727 5732 5739 5743 5747 5751 5753 5756 5760
5714 5710 5706 5700 5695 5690 5685 5682 5678 5675 5671 5667 5663 5658 5654 5650 5647 5645 5643 5640 5638 5637 5637 5641 5639 5640 5641 5644 5647 5649 5653 5655 5659 5663 5667 5671 5677 5679 5685 5691 5695 5700 5704 5709 5713 5717 5724 5728 5732 5736 5739 5744 5747 5751
5707 5702 5698 5693 5687 5682 5678 5675 5672 5669 5665 5660 5656 5652 5647 5643 5640 5638 5636 5633 5631 5630 5630 5632 5631 5632 5632 5634 5637 5640 5644 5647 5649 5653 5657 5662 5666 5669 5675 5680 5686 5691 5695 5698 5702 5708 5713 5715 5717 5725 5729 5732 5737 5743
5700 5695 5690 5685 5682 5677 5673 5669 5666 5664 5659 5655 5651 5645 5641 5637 5634 5632 5631 5628 5625 5623 5624 5626 5628 5627 5627 5629 5630 5633 5635 5638 5641 5644 5648 5653 5657 5660 5664 5669 5677 5680 5682 5687 5690 5696 5699 5704 5708 5712 5716 5724 5730 5735
5692 5688 5683 5680 5676 5672 5667 5664 5662 5659 5655 5651 5646 5641 5636 5632 5629 5628 5626 5623 5620 5619 5621 5622 5622 5622 5621 5622 5624 5625 5627 5631 5634 5637 5640 5645 5649 5651 5655 5662 5669 5668 5671 5674 5680 5685 5691 5695 5700 5703 5709 5715 5723 5729
5685 5681 5677 5674 5670 5666 5662 5660 5657 5654 5651 5647 5643 5639 5634 5630 5627 5624 5621 5618 5617 5617 5617 5617 5617 5618 5618 5618 5618 5620 5622 5624 5627 5630 5634 5638 5641 5644 5649 5657 5657 5660 5661 5665 5671 5677 5684 5689 5693 5696 5702 5708 5715 5721
5678 5675 5672 5668 5664 5660 5658 5655 5653 5650 5647 5644 5641 5638 5634 5631 5628 5625 5622 5619 5617 5617 5614 5613 5611 5610 5610 5611 5613 5614 5615 5617 5622 5624 5628 5632 5634 5638 5643 5646 5651 5654 5658 5662 5667 5673 5676 5682 5688 5692 5697 5704 5710 5715
5671 5668 5665 5661 5658 5656 5653 5651 5648 5646 5643 5641 5638 5636 5633 5631 5628 5626 5623 5621 5619 5616 5614 5611 5607 5605 5605 5605 5607 5610 5611 5613 5617 5620 5624 5628 5631 5633 5638 5642 5646 5650 5654 5659 5663 5669 5674 5679 5684 5689 5695 5700 5706 5712
5664 5661 5658 5655 5652 5650 5648 5646 5644 5642 5639 5637 5635 5633 5631 5629 5627 5624 5622 5621 5619 5618 5614 5612 5609 5607 5606 5605 5606 5607 5608 5611 5613 5616 5619 5621 5626 5630 5635 5639 5643 5647 5651 5656 5662 5667 5672 5676 5680 5685 5691 5696 5702 5707
5656 5653 5650 5648 5646 5645 5643 5642 5640 5638 5635 5634 5632 5630 5629 5627 5625 5624 5621 5620 5618 5617 5615 5613 5612 5611 5610 5608 5608 5609 5608 5610 5611 5613 5616 5619 5624 5630 5634 5638 5640 5643 5648 5652 5658 5664 5668 5671 5675 5681 5686 5691 5696 5702
5647 5644 5642 5642 5641 5640 5639 5637 5635 5633 5632 5630 5629 5627 5626 5624 5622 5621 5619 5617 5616 5615 5614 5612 5612 5611 5611 5610 5610 5610 5610 5611 5613 5614 5616 5620 5625 5630 5633 5635 5637 5640 5643 5648 5653 5656 5661 5667 5672 5677 5681 5686 5691 5697
5642 5639 5638 5637 5636 5635 5635 5634 5632 5631 5629 5628 5626 5624 5622 5620 5618 5616 5615 5613 5612 5612 5610 5610 5610 5610 5610 5610 5610 5610 5611 5613 5614 5616 5619 5623 5626 5629 5632 5634 5636 5638 5641 5644 5647 5652 5656 5662 5667 5670 5675 5681 5685 5690
5639 5637 5635 5634 5633 5633 5633 5632 5630 5628 5626 5624 5622 5619 5617 5615 5613 5611 5610 5609 5608 5607 5608 5607 5607 5608 5608 5608 5608 5609 5610 5611 5612 5614 5617 5620 5623 5627 5629 5632 5635 5637 5639 5642 5646 5649 5653 5658 5662 5666 5670 5675 5680 5685
5634 5633 5632 5631 5632 5632 5631 5629 5627 5625 5623 5621 5618 5616 5614 5611 5609 5607 5605 5603 5603 5602 5602 5603 5603 5604 5605 5606 5607 5607 5608 5609 5610 5611 5613 5615 5619 5623 5625 5628 5630 5632 5636 5640 5644 5648 5651 5654 5658 5661 5665 5670 5674 5678
5632 5632 5632 5632 5631 5631 5629 5627 5625 5623 5621 5619 5616 5613 5610 5607 5604 5601 5599 5598 5597 5597 5597 5598 5599 5600 5602 5602 5604 5605 5606 5608 5608 5610 5611 5613 5615 5618 5621 5624 5626 5629 5632 5636 5639 5642 5645 5648 5651 5654 5658 5662 5667 5670
5632 5632 5632 5631 5630 5629 5627 5625 5623 5621 5619 5617 5614 5611 5607 5604 5600 5597 5595 5594 5593 5593 5593 5593 5594 5595 5597 5598 5600 5602 5603 5605 5606 5607 5609 5611 5613 5615 5617 5620 5622 5625 5628 5631 5633 5636 5639 5642 5645 5649 5652 5655 5659 5662
5632 5632 5631 5630 5629 5627 5625 5624 5622 5620 5618 5615 5612 5609 5606 5602 5598 5594 5591 5590 5589 5589 5589 5590 5590 5591 5592 5593 5594 5596 5598 5600 5602 5603 5605 5607 5609 5611 5614 5616 5619 5621 5624 5626 5628 5630 5633 5635 5639 5642 5645 5648 5651 5653
5632 5631 5631 5629 5628 5626 5624 5623 5621 5619 5617 5614 5611 5608 5605 5600 5596 5593 5590 5588 5587 5586 5587 5587 5587 5587 5588 5589 5589 5590 5591 5593 5595 5597 5600 5602 5604 5606 5609 5611 5612 5615 5617 5619 5621 5623 5626 5627 5630 5633 5635 5638 5640 5643
5631 5631 5629 5628 5627 5625 5624 5622 5620 5619 5616 5614 5611 5608 5605 5600 5596 5593 5590 5588 5587 5586 5585 5585 5585 5585 5585 5585 5585 5585 5585 5586 5588 5590 5592 5595 5598 5601 5603 5606 5607 5608 5610 5612 5613 5615 5618 5619 5621 5623 5624 5626 5629 5633
5631 5630 5628 5627 5626 5625 5623 5622 5621 5619 5617 5614 5611 5608 5605 5601 5598 5594 5591 5589 5587 5586 5585 5585 5584 5584 5583 5582 5581 5581 5580 5580 5580 5581 5583 5587 5591 5595 5598 5599 5601 5601 5603 5605 5607 5609 5610 5612 5614 5616 5618 5619 5620 5622
5631 5630 5628 5626 5626 5625 5625 5622 5621 5619 5617 5615 5613 5610 5607 5603 5600 5596 5593 5591 5589 5587 5586 5585 5584 5583 5582 5581 5580 5579 5577 5575 5572 5573 5576 5580 5585 5588 5589 5590 5592 5595 5597 5598 5600 5602 5603 5604 5605 5607 5609 5610 5612 5614
5631 5630 5629 5627 5626 5625 5624 5623 5622 5620 5618 5616 5614 5611 5608 5605 5602 5598 5595 5593 5591 5589 5587 5586 5585 5583 5582 5581 5580 5579 5578 5577 5576 5576 5577 5579 5582 5584 5586 5587 5587 5588 5590 5591 5592 5593 5594 5595 5596 5597 5598 5599 5601 5602
5632 5632 5631 5628 5627 5626 5625 5624 5623 5621 5619 5617 5615 5613 5610 5607 5605 5602 5599 5596 5593 5591 5589 5588 5586 5584 5583 5581 5580 5579 5579 5578 5578 5578 5578 5579 5580 5581 5582 5583 5583 5583 5583 5584 5584 5584 5585 5585 5586 5587 5588 5589 5591 5592
5631 5631 5631 5629 5628 5627 5626 5625 5624 5622 5620 5618 5616 5614 5611 5609 5608 5605 5602 5599 5596 5594 5592 5590 5588 5586 5585 5583 5582 5580 5579 5578 5577 5577 5577 5578 5578 5579 5579 5579 5578 5578 5577 5577 5576 5576 5576 5576 5577 5578 5580 5581 5582 5583
5632 5631 5631 5630 5629 5629 5628 5626 5625 5623 5621 5619 5617 5614 5613 5611 5609 5607 5605 5602 5600 5597 5595 5593 5591 5589 5587 5585 5584 5583 5582 5580 5579 5578 5577 5576 5576 5576 5575 5575 5574 5573 5572 5570 5568 5567 5567 5567 5568 5569 5570 5572 5573 5575
5632 5632 5631 5631 5630 5630 5629 5627 5625 5623 5621 5619 5617 5615 5614 5612 5611 5609 5606 5604 5602 5600 5598 5597 5595 5592 5590 5588 5587 5586 5584 5582 5581 5579 5577 5575 5574 5573 5572 5571 5570 5569 5566 5563 5561 5560 5560 5560 5561 5562 5563 5564 5566 5567
5632 5632 5632 5632 5631 5630 5629 5628 5626 5624 5623 5621 5619 5616 5614 5612 5611 5609 5607 5605 5604 5602 5600 5599 5597 5595 5593 5591 5589 5587 5585 5583 5580 5578 5576 5575 5573 5573 5571 5570 5569 5567 5564 5559 5556 5554 5553 5554 5554 5554 5555 5556 5557 5558
5633 5633 5633 5632 5632 5631 5630 5629 5628 5626 5624 5622 5619 5617 5615 5612 5611 5609 5607 5606 5604 5602 5601 5600 5598 5596 5595 5594 5592 5590 5588 5586 5584 5582 5579 5577 5575 5573 5571 5569 5568 5566 5564 5560 5556 5553 5550 5550 5550 5550 5551 5550 5550 5551
5634 5634 5633 5633 5632 5632 5631 5629 5628 5627 5624 5621 5619 5618 5615 5613 5611 5610 5608 5607 5605 5603 5602 5601 5599 5598 5597 5595 5595 5593 5591 5590 5587 5585 5583 5580 5577 5575 5573 5571 5569 5567 5564 5563 5560 5557 5555 5552 5551 5549 5548 5546 5544 5544
5634 5634 5634 5633 5633 5632 5631 5629 5628 5627 5625 5624 5622 5620 5617 5615 5613 5611 5610 5608 5607 5606 5603 5602 5601 5600 5599 5598 5597 5595 5594 5592 5590 5588 5586 5584 5581 5578 5575 5573 5571 5568 5566 5564 5562 5560 5558 5556 5554 5552 5550 5548 5546 5546
5635 5634 5633 5633 5632 5631 5630 5629 5627 5626 5625 5624 5623 5622 5619 5618 5615 5613 5611 5610 5609 5607 5606 5604 5603 5603 5601 5599 5599 5598 5597 5596 5594 5593 5591 5590 5587 5585 5582 5579 5576 5574 5571 5568 5565 5563 5561 5559 5557 5556 5554 5553 5552 5551